Location: Loup Canal
(41.4930°N, 97.5670°W)
Time: 01:49:33
(UTC-05:00)

Daily predictions for brighter satellites

Satellite Brightness Start Highest point End
(mag) Time Altitude Azimuth Time Altitude Azimuth Time Altitude Azimuth
Terra 3.6 00:14:40 28° WNW 00:14:40 28° WNW 00:17:30 10° NNW
H-2A R/B 4.4 00:18:33 20° NNE 00:18:33 20° NNE 00:20:17 10° N
USA 267 3.5 00:10:05 10° NE 00:16:32 64° NW 00:19:04 38° W
CZ-2C R/B 4.4 00:20:50 32° NW 00:20:50 32° NW 00:23:37 10° NNW
Cosmos 2100 Rocket 4.5 00:42:38 58° NNW 00:42:38 58° NNW 00:47:52 10° N
Cosmos 1943 Rocket 3.6 00:37:06 10° NW 00:40:14 30° WNW 00:40:14 30° WNW
Cosmos 2061 Rocket 4.5 00:48:33 58° N 00:48:33 58° N 00:53:40 10° N
Lacrosse 5 4.1 00:43:58 10° WNW 00:45:20 18° WNW 00:45:20 18° WNW
USA 234 3.5 00:50:38 66° NNW 00:50:38 66° NNW 00:56:17 10° NW
Mayak 1.5 00:51:40 10° NNE 00:52:32 16° NNE 00:52:32 16° NNE
SeaSat 1 4.1 01:02:12 30° N 01:02:12 30° N 01:04:55 10° NNW
Cosmos 2082 Rocket 4.5 01:38:11 15° ENE 01:38:11 15° ENE 01:39:38 10° NE
Cosmos 1833 Rocket 4.2 02:08:48 29° ENE 02:08:48 29° ENE 02:11:55 10° NE
ADEOS Rocket 3.9 02:11:05 10° N 02:16:45 42° NW 02:16:45 42° NW
Cosmos 1464 Rocket 4.5 02:44:54 52° NW 02:44:54 52° NW 02:49:59 10° N
CZ-2D R/B 3.7 02:41:54 10° NE 02:45:57 26° E 02:45:57 26° E
Lacrosse 4 Rocket 3.9 02:48:39 10° NNW 02:49:54 18° NNW 02:49:54 18° NNW
SL-16 R/B 3.3 02:54:04 40° ESE 02:55:31 47° ENE 03:01:28 10° N
Lacrosse 5 rocket 3.5 03:01:03 26° NNE 03:01:03 26° NNE 03:03:00 10° NE
Nadezhda 4 Rocket 4.2 02:56:25 10° N 03:01:35 63° NNW 03:01:35 63° NNW
Cosmos 1980 Rocket 2.6 03:01:22 10° NNW 03:06:54 56° ENE 03:07:05 55° ENE
Cosmos 1697 Rocket 3.4 03:02:41 10° NNW 03:06:41 47° NNW 03:06:41 47° NNW
Iridium 4 Rocket 4.4 03:14:31 39° NNE 03:14:31 39° NNE 03:17:36 10° N
Resurs 1-4 Rocket 2.7 03:10:17 10° NNE 03:15:03 48° E 03:15:03 48° E
Cosmos 1634 Rocket 4.0 03:15:51 72° ESE 03:16:02 72° E 03:22:17 10° NNE
Cosmos 1898 Rocket 4.4 03:12:30 10° N 03:17:31 45° ENE 03:18:19 42° E
Exosat Rocket 4.2 03:12:20 10° NNW 03:18:32 73° WSW 03:18:42 72° WSW
Cosmos 2082 Rocket 2.6 03:20:01 55° NNW 03:20:01 55° NNW 03:24:56 10° NNE
Cosmos 2208 Rocket 4.4 03:21:34 61° ENE 03:21:34 61° ENE 03:26:08 10° NNE
SL-16 R/B 4.1 03:17:41 10° N 03:22:29 27° NE 03:27:14 10° ESE
Cosmos 304 Rocket 4.4 03:26:47 55° NE 03:26:47 55° NE 03:30:35 10° NNE
IRS-P3 4.1 03:26:09 10° NNE 03:31:07 77° N 03:31:07 77° N
Cosmos 1570 Rocket 4.1 03:32:29 71° N 03:32:29 71° N 03:37:16 10° NNE
Cosmos 2026 Rocket 4.0 03:28:53 10° N 03:35:18 82° E 03:36:19 64° SSE
Cosmos 468 Rocket 4.1 03:36:23 70° E 03:36:23 70° E 03:41:31 10° NNE
Cosmos 2322 Rocket 3.8 03:31:35 10° N 03:36:38 32° ENE 03:41:38 10° ESE
NPP 3.7 03:33:09 10° N 03:38:12 69° NW 03:38:12 69° NW
USA 238 DEB 4.1 03:38:42 44° SSE 03:40:05 50° ESE 03:46:44 10° NE
USA 238 4.2 03:38:47 43° SSE 03:40:11 49° ESE 03:46:50 10° NE
MOZ.5/SAFIR/RUBIN 5/SL-8 4.1 03:41:18 61° E 03:41:27 61° ENE 03:46:09 10° N
ARIANE 5 R/B 2.9 03:38:02 10° NNE 03:43:11 55° E 03:43:45 52° SE
Cosmos 1814 Rocket 4.4 03:47:37 50° SE 03:48:04 52° ESE 03:53:06 10° NNE
Spot 4 Rocket 4.2 03:43:26 10° NNE 03:48:35 64° ESE 03:49:04 60° SE
Cosmos 1833 Rocket 3.8 03:50:29 31° WNW 03:50:41 31° WNW 03:55:42 10° N
Cosmos 2195 Rocket 4.4 03:50:53 10° NNW 03:56:53 59° W 03:57:08 58° WSW
Cosmos 1842 4.3 03:56:56 40° E 03:56:56 40° E 04:00:40 10° NNE
SL-08 R/B 4.3 04:07:00 35° WNW 04:07:00 35° WNW 04:10:18 10° NNW
H-2A R/B 3.7 04:02:29 10° N 04:05:37 33° NW 04:05:37 33° NW
Cosmos 1726 Rocket 3.5 04:03:38 10° N 04:07:33 73° NNW 04:07:33 73° NNW
Cosmos 44 3.5 04:03:37 10° NNW 04:08:52 78° NE 04:14:16 10° SE
Timation 2 Rocket 3.9 04:07:21 51° S 04:08:56 76° ESE 04:14:55 10° NNE
Cosmos 2298 Rocket 4.1 04:05:23 10° NNW 04:10:43 78° ENE 04:13:53 25° SSE
Cosmos 1805 3.6 04:08:06 10° N 04:11:58 60° E 04:12:15 58° ESE
Cosmos 841 Rocket 3.7 04:11:23 48° SSE 04:12:39 65° ESE 04:17:49 10° NNE
IRS-1D 3.6 04:08:30 10° N 04:13:37 60° WNW 04:14:13 56° WSW
Cosmos 540 Rocket 4.4 04:18:27 26° SSE 04:20:51 43° ESE 04:25:42 10° NNE
Cosmos 1766 3.7 04:18:27 10° NNW 04:21:29 49° NW 04:21:29 49° NW
Cosmos 1655 Rocket 4.0 04:16:11 10° NNW 04:22:30 66° W 04:24:59 38° SSW
ATLAS 3B R/B 2.8 04:19:38 39° SSW 04:22:35 81° ESE 04:29:34 10° NE
Cosmos 1953 4.0 04:21:38 10° N 04:25:22 34° ENE 04:29:04 10° SE
Cosmos 2228 2.8 04:21:24 10° NNW 04:25:39 71° W 04:25:46 70° WSW
CZ-2D R/B 2.7 04:21:34 10° N 04:26:32 39° WNW 04:27:17 37° W
ATLAS CENTAUR R/B 3.8 04:23:30 10° N 04:27:13 26° NE 04:31:06 10° ESE
Cosmos 1602 Rocket 4.4 04:28:51 24° SSE 04:31:07 46° E 04:35:16 10° NNE
NOSS 3-2 (A) 3.6 04:30:03 33° S 04:32:42 64° ESE 04:39:05 10° NE
ADEOS 3.5 04:29:11 10° NNE 04:34:26 88° WNW 04:36:38 36° SSW
Cosmos 2058 Rocket 3.0 04:30:19 10° NNW 04:34:43 62° W 04:35:22 54° SW
ADEOS II 2.5 04:31:10 10° NNE 04:36:23 59° E 04:39:56 20° S
Cosmos 1763 Rocket 3.7 04:35:41 42° WSW 04:37:02 54° WNW 04:42:16 10° N
Lacrosse 5 rocket 3.9 04:36:42 10° NW 04:38:55 14° NNW 04:41:06 10° N
SL-16 R/B 3.4 04:39:09 29° W 04:39:17 29° W 04:44:38 10° NW
Cosmos 1733 3.9 04:35:47 10° N 04:39:36 54° E 04:42:48 14° SSE
CENTAUR R/B 4.4 04:37:15 10° SSE 04:41:41 23° ESE 04:46:33 10° ENE
Cosmos 1626 Rocket 3.6 04:40:38 31° S 04:42:38 73° E 04:46:57 10° NNE
SJ 16-02 2.1 04:40:54 10° N 04:45:14 53° ENE 04:49:33 10° SSE
Cosmos 44 Rocket 3.3 04:41:34 10° NW 04:46:43 75° WSW 04:51:54 10° SSE
USA 215 4.0 04:41:00 10° ENE 04:47:12 44° SE 04:51:41 19° SSW
Cosmos 2360 Rocket 3.1 04:42:53 10° NNW 04:48:23 51° ENE 04:53:50 10° SE
Cosmos 1980 Rocket 3.7 04:46:24 10° NW 04:48:47 18° WNW 04:48:47 18° WNW
Cosmos 1892 Rocket 4.5 04:50:52 30° W 04:51:13 30° WNW 04:55:08 10° NNW
Cosmos 1758 3.1 04:49:21 10° N 04:53:20 80° W 04:55:45 23° S
Resurs 1-4 Rocket 3.5 04:50:55 10° NNW 04:54:52 22° WNW 04:56:08 20° W
Aureole 2 Rocket 3.4 04:52:05 10° N 04:55:47 51° ENE 04:59:13 10° SE
Cosmos 2082 Rocket 4.4 05:03:27 10° NW 05:04:41 11° NW 05:05:55 10° NNW
ERBS 2.7 05:04:19 32° SSW 05:05:33 54° SE 05:08:52 10° NE
Cosmos 1937 Rocket 4.4 05:02:02 10° NW 05:06:17 26° W 05:06:54 25° WSW
SL-16 R/B 2.4 05:01:22 10° NW 05:06:47 47° WSW 05:12:09 10° S
Helios 1A Rocket 4.2 05:07:36 10° NNW 05:11:02 25° WNW 05:12:08 22° W
UNKNOWN OBJECT B 3.8 05:08:33 10° N 05:11:51 28° WNW 05:12:47 25° W
Cosmos 1125 Rocket 3.6 05:07:10 10° NNW 05:12:31 86° ENE 05:17:48 10° SSE
Cosmos 1378 3.0 05:10:37 23° SSW 05:12:51 73° W 05:16:37 10° N
COSMOS 2428 4.4 05:09:08 10° N 05:14:23 36° ENE 05:19:34 10° SE
Cosmos 1470 2.7 05:12:40 10° NNW 05:16:39 69° W 05:20:34 10° S
Cosmos 2322 Rocket 2.7 05:15:33 10° NW 05:20:41 37° WSW 05:25:47 10° S
ARIANE 5 R/B 4.1 05:18:09 10° NNW 05:21:52 20° WNW 05:24:06 15° W
Cosmos 372 Rocket 3.9 05:21:34 10° NNW 05:26:45 66° WSW 05:31:51 10° S
Cosmos 1707 2.7 05:25:15 13° SSW 05:28:34 64° W 05:32:27 10° N
BREEZE-M R/B 4.2 05:27:31 14° W 05:30:24 41° N 05:36:42 10° ENE
USA 238 4.5 05:26:13 16° WSW 05:31:18 39° NW 05:37:47 10° NNE
Gblst 52 Del rocket 4.4 05:26:02 10° WNW 05:32:01 77° SW 05:38:52 10° SE
Cosmos 1825 Rocket 3.6 05:28:35 10° S 05:32:54 79° E 05:37:14 10° N
Cosmos 1833 4.3 05:28:46 14° SW 05:33:46 65° WNW 05:39:32 10° NNE
Cosmos 1238 Rocket 4.1 05:28:02 10° S 05:34:37 87° W 05:41:19 10° N
CZ-4B R/B 3.0 05:31:05 10° NNE 05:35:17 78° ESE 05:39:13 10° S
Okean O Rocket 2.6 05:35:52 10° NNE 05:40:06 48° E 05:44:18 10° S
USA 161 3.0 05:38:59 10° SSE 05:41:51 41° ENE 05:44:36 10° N
CZ-4B R/B 4.0 05:43:09 10° NNE 05:48:35 54° E 05:53:53 10° S
PSLV R/B 3.7 05:45:33 10° N 05:49:38 50° WNW 05:53:41 10° SSW
Meteor PRIRODA 4.5 05:46:35 10° NNE 05:50:14 52° E 05:53:52 10° S
Meteor 1-31 Rocket 3.5 05:47:27 10° NNE 05:51:16 55° E 05:55:01 10° S
PSLV R/B 2.9 05:51:37 12° WSW 05:54:15 71° S 05:57:15 10° E
Meteor 1-28 Rocket 3.4 05:50:56 10° SSE 05:54:39 75° ENE 05:58:26 10° N
Cosmos 1417 Rocket 4.5 05:51:05 10° SSW 05:57:12 69° W 06:03:26 10° N
PSLV R/B 3.8 05:54:50 10° N 05:58:36 56° WNW 06:02:15 10° SSW
Cosmos 1953 Rocket 3.6 05:55:52 10° SSW 06:00:19 74° W 06:04:47 10° N
Cosmos 1953 3.9 05:58:50 10° NW 06:01:29 17° W 06:04:08 10° SW
Cosmos 1400 Rocket 2.8 06:00:48 10° S 06:04:43 86° W 06:08:45 10° N
ATLAS CENTAUR R/B 2.0 06:02:06 10° NW 06:06:19 40° WSW 06:10:43 10° S
Cosmos 2322 3.9 06:01:20 10° NW 06:06:52 50° WSW 06:12:21 10° S
Cosmos 2237 4.4 06:02:09 10° NNW 06:07:41 52° WSW 06:13:11 10° S
NOSS 3-2 (C) 4.1 06:02:29 10° WSW 06:08:10 43° NW 06:14:30 10° NNE
Cosmos 1538 Rocket 4.3 06:04:54 10° S 06:10:02 71° ESE 06:15:11 10° NNE
Cosmos 1745 Rocket 4.0 06:05:03 10° N 06:11:16 78° W 06:17:31 10° S
ATLAS 3B R/B 4.0 06:08:08 10° W 06:14:00 27° NW 06:19:42 10° NNE
